Time,TemperatureF,DewpointF,PressureIn,WindDirection,WindDirectionDegrees,WindSpeedMPH,WindSpeedGustMPH,Humidity,HourlyPrecipIn,Conditions,Clouds,dailyrainin,SoftwareType,DateUTC
2013-03-07 00:00:00,20.2,14.7,30.27,NNW,338,0.0,0.0,79,0.00,,,0.00,WUHU216HW,2013-03-07 06:00:00,
2013-03-07 00:05:00,20.0,14.5,30.27,NNW,338,0.0,0.0,79,0.00,,,0.00,WUHU216HW,2013-03-07 06:05:00,
2013-03-07 00:10:00,19.8,14.6,30.27,NNW,338,0.0,0.0,80,0.00,,,0.00,WUHU216HW,2013-03-07 06:10:00,
2013-03-07 00:15:00,19.6,14.4,30.27,NNW,338,0.0,0.0,80,0.00,,,0.00,WUHU216HW,2013-03-07 06:15:00,
2013-03-07 00:20:00,19.3,14.0,30.27,NNW,338,0.0,0.0,80,0.00,,,0.00,WUHU216HW,2013-03-07 06:20:00,
2013-03-07 00:25:00,19.3,14.0,30.27,NNW,338,0.0,0.0,80,0.00,,,0.00,WUHU216HW,2013-03-07 06:25:00,
2013-03-07 00:30:00,19.1,13.9,30.27,NNW,338,0.0,0.0,80,0.00,,,0.00,WUHU216HW,2013-03-07 06:30:00,
2013-03-07 00:35:00,18.5,13.6,30.27,NNW,338,0.0,0.0,81,0.00,,,0.00,WUHU216HW,2013-03-07 06:35:00,
2013-03-07 00:40:00,18.5,13.9,30.28,NNW,338,0.0,0.0,82,0.00,,,0.00,WUHU216HW,2013-03-07 06:40:00,
2013-03-07 00:45:00,18.4,13.7,30.28,NNW,338,0.0,0.0,82,0.00,,,0.00,WUHU216HW,2013-03-07 06:45:00,
2013-03-07 00:50:00,18.4,13.7,30.28,NNW,338,0.0,0.0,82,0.00,,,0.00,WUHU216HW,2013-03-07 06:50:00,
2013-03-07 00:55:00,18.0,13.1,30.28,NNW,338,0.0,0.0,81,0.00,,,0.00,WUHU216HW,2013-03-07 06:55:00,
2013-03-07 01:00:00,17.6,12.7,30.29,NNW,338,0.0,0.0,81,0.00,,,0.00,WUHU216HW,2013-03-07 07:00:00,
2013-03-07 01:05:00,17.5,12.5,30.29,NNW,338,0.0,0.0,81,0.00,,,0.00,WUHU216HW,2013-03-07 07:05:00,
2013-03-07 01:10:00,17.1,12.3,30.29,NNW,338,0.0,0.0,81,0.00,,,0.00,WUHU216HW,2013-03-07 07:10:00,
2013-03-07 01:15:00,16.7,11.9,30.29,NNW,338,0.0,0.0,81,0.00,,,0.00,WUHU216HW,2013-03-07 07:15:00,
2013-03-07 01:20:00,16.2,11.3,30.29,NNW,338,0.0,0.0,81,0.00,,,0.00,WUHU216HW,2013-03-07 07:20:00,
2013-03-07 01:25:00,16.0,11.7,30.30,NNW,338,0.0,0.0,83,0.00,,,0.00,WUHU216HW,2013-03-07 07:25:00,
2013-03-07 01:30:00,16.2,12.2,30.30,NNW,338,0.0,0.0,84,0.00,,,0.00,WUHU216HW,2013-03-07 07:30:00,
2013-03-07 01:35:00,16.2,12.2,30.30,NNW,338,0.0,0.0,84,0.00,,,0.00,WUHU216HW,2013-03-07 07:35:00,
2013-03-07 01:40:00,16.0,11.7,30.30,NNW,338,0.0,0.0,83,0.00,,,0.00,WUHU216HW,2013-03-07 07:40:00,
2013-03-07 01:45:00,15.7,11.3,30.30,NNW,338,0.0,0.0,83,0.00,,,0.00,WUHU216HW,2013-03-07 07:45:00,
2013-03-07 01:50:00,16.0,12.0,30.30,NNW,338,0.0,0.0,84,0.00,,,0.00,WUHU216HW,2013-03-07 07:50:00,
2013-03-07 01:55:00,16.4,12.1,30.30,NNW,338,0.0,0.0,83,0.00,,,0.00,WUHU216HW,2013-03-07 07:55:00,
2013-03-07 02:00:00,15.8,11.4,30.30,NNW,338,0.0,0.0,82,0.00,,,0.00,WUHU216HW,2013-03-07 08:00:00,
2013-03-07 02:05:00,15.5,11.3,30.29,NNW,338,0.0,0.0,83,0.00,,,0.00,WUHU216HW,2013-03-07 08:05:00,
2013-03-07 02:10:00,16.0,12.3,30.29,NNW,338,0.0,0.0,85,0.00,,,0.00,WUHU216HW,2013-03-07 08:10:00,
2013-03-07 02:15:00,16.4,12.3,30.29,NNW,338,0.0,0.0,84,0.00,,,0.00,WUHU216HW,2013-03-07 08:15:00,
2013-03-07 02:20:00,16.4,12.3,30.30,NNW,338,0.0,0.0,84,0.00,,,0.00,WUHU216HW,2013-03-07 08:20:00,
2013-03-07 02:25:00,16.2,11.9,30.29,NNW,338,0.0,0.0,83,0.00,,,0.00,WUHU216HW,2013-03-07 08:25:00,
2013-03-07 02:30:00,16.0,12.0,30.30,NNW,338,0.0,0.0,84,0.00,,,0.00,WUHU216HW,2013-03-07 08:30:00,
2013-03-07 02:35:00,16.0,12.0,30.30,NNW,338,0.9,0.9,84,0.00,,,0.00,WUHU216HW,2013-03-07 08:35:00,
2013-03-07 02:40:00,15.8,11.5,30.30,NNW,338,0.0,0.9,83,0.00,,,0.00,WUHU216HW,2013-03-07 08:40:00,
2013-03-07 02:45:00,15.3,11.1,30.30,NNW,338,0.0,0.9,83,0.00,,,0.00,WUHU216HW,2013-03-07 08:45:00,
2013-03-07 02:50:00,14.8,10.3,30.30,NNW,338,0.0,0.0,82,0.00,,,0.00,WUHU216HW,2013-03-07 08:50:00,
2013-03-07 02:55:00,14.0,9.5,30.30,NNW,338,0.0,0.0,82,0.00,,,0.00,WUHU216HW,2013-03-07 08:55:00,
2013-03-07 03:00:00,13.7,9.2,30.30,NNW,338,0.0,0.0,82,0.00,,,0.00,WUHU216HW,2013-03-07 09:00:00,
2013-03-07 03:05:00,13.3,8.8,30.30,NNE,23,0.0,0.0,82,0.00,,,0.00,WUHU216HW,2013-03-07 09:05:00,
2013-03-07 03:10:00,13.1,8.6,30.30,NNE,23,0.0,0.0,82,0.00,,,0.00,WUHU216HW,2013-03-07 09:10:00,
2013-03-07 03:15:00,13.0,8.5,30.30,SSE,158,0.0,0.0,82,0.00,,,0.00,WUHU216HW,2013-03-07 09:15:00,
2013-03-07 03:20:00,12.8,8.3,30.30,SSE,158,0.0,0.0,82,0.00,,,0.00,WUHU216HW,2013-03-07 09:20:00,
2013-03-07 03:25:00,12.4,7.9,30.30,SSE,158,0.0,0.0,82,0.00,,,0.00,WUHU216HW,2013-03-07 09:25:00,
2013-03-07 03:30:00,11.9,7.7,30.29,SSE,158,0.0,0.0,83,0.00,,,0.00,WUHU216HW,2013-03-07 09:30:00,
2013-03-07 03:35:00,11.7,7.5,30.29,SSE,158,0.0,0.0,83,0.00,,,0.00,WUHU216HW,2013-03-07 09:35:00,
2013-03-07 03:40:00,11.0,6.5,30.29,NNE,23,1.1,1.3,82,0.00,,,0.00,WUHU216HW,2013-03-07 09:40:00,
2013-03-07 03:45:00,9.4,5.2,30.29,NNE,23,0.0,1.3,83,0.00,,,0.00,WUHU216HW,2013-03-07 09:45:00,
2013-03-07 03:50:00,9.0,4.9,30.29,NNE,23,0.0,1.1,83,0.00,,,0.00,WUHU216HW,2013-03-07 09:50:00,
2013-03-07 03:56:00,8.8,5.0,30.29,NNE,23,0.0,0.0,84,0.00,,,0.00,WUHU216HW,2013-03-07 09:56:00,
2013-03-07 04:01:00,9.0,5.1,30.29,NNE,23,0.0,0.0,84,0.00,,,0.00,WUHU216HW,2013-03-07 10:01:00,
2013-03-07 04:06:00,9.0,5.1,30.29,NNE,23,0.0,0.0,84,0.00,,,0.00,WUHU216HW,2013-03-07 10:06:00,
2013-03-07 04:11:00,9.0,5.1,30.29,NNE,23,0.0,0.0,84,0.00,,,0.00,WUHU216HW,2013-03-07 10:11:00,
2013-03-07 04:16:00,9.2,5.3,30.29,NNE,23,0.0,0.0,84,0.00,,,0.00,WUHU216HW,2013-03-07 10:16:00,
2013-03-07 04:21:00,9.2,5.6,30.29,NNE,23,0.0,0.0,85,0.00,,,0.00,WUHU216HW,2013-03-07 10:21:00,
2013-03-07 04:26:00,9.0,5.1,30.29,NNE,23,0.0,0.0,84,0.00,,,0.00,WUHU216HW,2013-03-07 10:26:00,
2013-03-07 04:31:00,8.5,4.3,30.29,NNE,23,0.0,0.0,83,0.00,,,0.00,WUHU216HW,2013-03-07 10:31:00,
2013-03-07 04:36:00,7.6,3.4,30.30,NNE,23,0.0,0.0,83,0.00,,,0.00,WUHU216HW,2013-03-07 10:36:00,
2013-03-07 04:41:00,6.8,2.7,30.30,NNE,23,0.0,0.0,83,0.00,,,0.00,WUHU216HW,2013-03-07 10:41:00,
2013-03-07 04:46:00,6.7,2.5,30.30,NNE,23,0.0,0.0,83,0.00,,,0.00,WUHU216HW,2013-03-07 10:46:00,
2013-03-07 04:51:00,6.7,3.1,30.30,NNE,23,0.0,0.0,85,0.00,,,0.00,WUHU216HW,2013-03-07 10:51:00,
2013-03-07 04:56:00,7.0,3.4,30.31,NNE,23,0.0,0.0,85,0.00,,,0.00,WUHU216HW,2013-03-07 10:56:00,
2013-03-07 05:01:00,6.7,3.1,30.31,NNE,23,0.0,0.0,85,0.00,,,0.00,WUHU216HW,2013-03-07 11:01:00,
2013-03-07 05:06:00,6.5,2.9,30.31,NNE,23,0.0,0.0,85,0.00,,,0.00,WUHU216HW,2013-03-07 11:06:00,
2013-03-07 05:11:00,6.3,2.4,30.31,NNE,23,0.0,0.0,84,0.00,,,0.00,WUHU216HW,2013-03-07 11:11:00,
2013-03-07 05:16:00,6.1,2.3,30.31,NNE,23,0.0,0.0,84,0.00,,,0.00,WUHU216HW,2013-03-07 11:16:00,
2013-03-07 05:21:00,6.3,2.4,30.32,NNE,23,0.0,0.0,84,0.00,,,0.00,WUHU216HW,2013-03-07 11:21:00,
2013-03-07 05:26:00,6.3,2.4,30.31,NNE,23,0.0,0.0,84,0.00,,,0.00,WUHU216HW,2013-03-07 11:26:00,
2013-03-07 05:31:00,6.3,2.4,30.32,NNE,23,0.0,0.0,84,0.00,,,0.00,WUHU216HW,2013-03-07 11:31:00,
2013-03-07 05:36:00,6.1,2.3,30.32,NNE,23,0.0,0.0,84,0.00,,,0.00,WUHU216HW,2013-03-07 11:36:00,
2013-03-07 05:41:00,6.1,2.3,30.31,NNE,23,0.0,0.0,84,0.00,,,0.00,WUHU216HW,2013-03-07 11:41:00,
2013-03-07 05:46:00,5.4,1.3,30.31,NNE,23,0.0,0.0,83,0.00,,,0.00,WUHU216HW,2013-03-07 11:46:00,
2013-03-07 05:51:00,4.7,0.8,30.32,NNE,23,0.0,0.0,84,0.00,,,0.00,WUHU216HW,2013-03-07 11:51:00,
2013-03-07 05:56:00,4.0,0.1,30.31,NNE,23,0.0,0.0,84,0.00,,,0.00,WUHU216HW,2013-03-07 11:56:00,
2013-03-07 06:01:00,4.1,0.5,30.31,North,0,0.0,0.0,85,0.00,,,0.00,WUHU216HW,2013-03-07 12:01:00,
2013-03-07 06:06:00,5.2,2.3,30.31,NW,315,0.4,0.4,88,0.00,,,0.00,WUHU216HW,2013-03-07 12:06:00,
2013-03-07 06:11:00,5.4,2.5,30.31,NW,315,0.0,0.4,88,0.00,,,0.00,WUHU216HW,2013-03-07 12:11:00,
2013-03-07 06:16:00,5.0,2.2,30.31,NW,315,0.0,0.4,88,0.00,,,0.00,WUHU216HW,2013-03-07 12:16:00,
2013-03-07 06:21:00,4.7,1.4,30.32,NW,315,0.0,0.0,86,0.00,,,0.00,WUHU216HW,2013-03-07 12:21:00,
2013-03-07 06:26:00,4.1,0.5,30.32,NW,315,0.0,0.0,85,0.00,,,0.00,WUHU216HW,2013-03-07 12:26:00,
2013-03-07 06:31:00,4.0,0.4,30.32,NW,315,0.0,0.0,85,0.00,,,0.00,WUHU216HW,2013-03-07 12:31:00,
2013-03-07 06:36:00,4.0,0.4,30.32,NW,315,0.0,0.0,85,0.00,,,0.00,WUHU216HW,2013-03-07 12:36:00,
2013-03-07 06:41:00,4.7,1.4,30.32,NW,315,0.0,0.0,86,0.00,,,0.00,WUHU216HW,2013-03-07 12:41:00,
2013-03-07 06:46:00,4.9,1.3,30.32,NW,315,0.0,0.0,85,0.00,,,0.00,WUHU216HW,2013-03-07 12:46:00,
2013-03-07 06:51:00,5.0,1.4,30.32,NW,315,0.0,0.0,85,0.00,,,0.00,WUHU216HW,2013-03-07 12:51:00,
2013-03-07 06:56:00,5.0,1.4,30.33,NW,315,0.0,0.0,85,0.00,,,0.00,WUHU216HW,2013-03-07 12:56:00,
2013-03-07 07:01:00,4.9,1.3,30.33,NW,315,0.0,0.0,85,0.00,,,0.00,WUHU216HW,2013-03-07 13:01:00,
2013-03-07 07:06:00,4.9,1.3,30.33,NW,315,0.0,0.0,85,0.00,,,0.00,WUHU216HW,2013-03-07 13:06:00,
2013-03-07 07:11:00,5.2,1.6,30.33,NW,315,0.0,0.0,85,0.00,,,0.00,WUHU216HW,2013-03-07 13:11:00,
2013-03-07 07:16:00,5.8,2.2,30.34,NW,315,0.0,0.0,85,0.00,,,0.00,WUHU216HW,2013-03-07 13:16:00,
2013-03-07 07:21:00,6.1,2.5,30.34,NW,315,0.0,0.0,85,0.00,,,0.00,WUHU216HW,2013-03-07 13:21:00,
2013-03-07 07:26:00,6.1,2.5,30.34,NW,315,0.0,0.0,85,0.00,,,0.00,WUHU216HW,2013-03-07 13:26:00,
2013-03-07 07:32:00,6.1,2.5,30.34,NW,315,0.0,0.0,85,0.00,,,0.00,WUHU216HW,2013-03-07 13:32:00,
2013-03-07 07:37:00,5.9,2.3,30.34,North,0,0.0,0.4,85,0.00,,,0.00,WUHU216HW,2013-03-07 13:37:00,
2013-03-07 07:42:00,5.8,1.9,30.35,North,0,0.0,0.7,84,0.00,,,0.00,WUHU216HW,2013-03-07 13:42:00,
2013-03-07 07:47:00,6.7,3.1,30.35,North,0,0.0,0.7,85,0.00,,,0.00,WUHU216HW,2013-03-07 13:47:00,
2013-03-07 07:52:00,7.4,3.8,30.35,North,0,0.0,0.0,85,0.00,,,0.00,WUHU216HW,2013-03-07 13:52:00,
2013-03-07 07:57:00,7.7,4.1,30.35,North,0,0.0,0.0,85,0.00,,,0.00,WUHU216HW,2013-03-07 13:57:00,
2013-03-07 08:02:00,8.3,4.7,30.35,North,0,0.0,0.0,85,0.00,,,0.00,WUHU216HW,2013-03-07 14:02:00,
2013-03-07 08:07:00,9.2,6.0,30.35,North,0,0.0,0.0,87,0.00,,,0.00,WUHU216HW,2013-03-07 14:07:00,
2013-03-07 08:12:00,9.7,6.3,30.35,North,0,0.0,0.0,86,0.00,,,0.00,WUHU216HW,2013-03-07 14:12:00,
2013-03-07 08:17:00,10.4,7.0,30.36,North,0,0.0,0.0,86,0.00,,,0.00,WUHU216HW,2013-03-07 14:17:00,
2013-03-07 08:22:00,10.4,7.0,30.36,North,0,0.0,0.0,86,0.00,,,0.00,WUHU216HW,2013-03-07 14:22:00,
2013-03-07 08:27:00,10.8,7.4,30.35,North,0,0.0,0.0,86,0.00,,,0.00,WUHU216HW,2013-03-07 14:27:00,
2013-03-07 08:32:00,11.5,8.1,30.35,North,0,0.0,0.0,86,0.00,,,0.00,WUHU216HW,2013-03-07 14:32:00,
2013-03-07 08:37:00,11.7,8.3,30.36,North,0,0.0,0.0,86,0.00,,,0.00,WUHU216HW,2013-03-07 14:37:00,
2013-03-07 08:42:00,11.9,8.5,30.36,North,0,0.0,0.0,86,0.00,,,0.00,WUHU216HW,2013-03-07 14:42:00,
2013-03-07 08:47:00,12.2,8.8,30.36,North,0,0.7,1.3,86,0.00,,,0.00,WUHU216HW,2013-03-07 14:47:00,
2013-03-07 08:52:00,13.0,9.5,30.36,North,0,0.7,1.3,86,0.00,,,0.00,WUHU216HW,2013-03-07 14:52:00,
2013-03-07 08:57:00,13.5,10.1,30.36,North,0,1.3,1.3,86,0.00,,,0.00,WUHU216HW,2013-03-07 14:57:00,
2013-03-07 09:02:00,14.0,10.4,30.36,North,0,0.0,1.3,85,0.00,,,0.00,WUHU216HW,2013-03-07 15:02:00,
2013-03-07 09:07:00,14.8,11.1,30.36,North,0,0.0,0.9,85,0.00,,,0.00,WUHU216HW,2013-03-07 15:07:00,
2013-03-07 09:12:00,15.8,12.3,30.36,North,0,0.0,0.0,86,0.00,,,0.00,WUHU216HW,2013-03-07 15:12:00,
2013-03-07 09:17:00,16.9,13.1,30.36,North,0,0.0,0.0,85,0.00,,,0.00,WUHU216HW,2013-03-07 15:17:00,
2013-03-07 09:22:00,18.0,13.6,30.36,North,0,1.1,1.1,83,0.00,,,0.00,WUHU216HW,2013-03-07 15:22:00,
2013-03-07 09:27:00,18.5,13.9,30.35,North,0,1.3,1.8,82,0.00,,,0.00,WUHU216HW,2013-03-07 15:27:00,
2013-03-07 09:32:00,19.3,14.9,30.36,North,0,0.0,1.8,83,0.00,,,0.00,WUHU216HW,2013-03-07 15:32:00,
2013-03-07 09:37:00,20.0,15.0,30.35,North,0,0.2,1.3,81,0.01,,,0.01,WUHU216HW,2013-03-07 15:37:00,
2013-03-07 09:42:00,20.5,15.0,30.35,North,0,1.3,1.3,79,0.01,,,0.01,WUHU216HW,2013-03-07 15:42:00,
2013-03-07 09:47:00,20.9,15.0,30.35,North,0,1.1,1.3,78,0.01,,,0.01,WUHU216HW,2013-03-07 15:47:00,
2013-03-07 09:52:00,21.6,16.1,30.35,North,0,0.0,1.3,79,0.01,,,0.01,WUHU216HW,2013-03-07 15:52:00,
2013-03-07 09:57:00,22.3,16.5,30.35,North,0,1.3,1.3,78,0.01,,,0.01,WUHU216HW,2013-03-07 15:57:00,
2013-03-07 10:02:00,23.0,16.9,30.35,NNW,338,1.3,1.8,77,0.01,,,0.01,WUHU216HW,2013-03-07 16:02:00,
2013-03-07 10:07:00,23.2,16.7,30.35,NNW,338,1.8,2.0,76,0.01,,,0.01,WUHU216HW,2013-03-07 16:07:00,
2013-03-07 10:12:00,23.2,16.5,30.35,NNW,338,1.3,2.0,75,0.01,,,0.01,WUHU216HW,2013-03-07 16:12:00,
2013-03-07 10:17:00,23.4,16.7,30.35,NNW,338,1.3,1.8,75,0.01,,,0.01,WUHU216HW,2013-03-07 16:17:00,
2013-03-07 10:22:00,23.4,16.0,30.35,North,0,0.9,1.8,73,0.01,,,0.01,WUHU216HW,2013-03-07 16:22:00,
2013-03-07 10:27:00,23.6,16.2,30.35,North,0,2.2,2.2,73,0.01,,,0.01,WUHU216HW,2013-03-07 16:27:00,
2013-03-07 10:32:00,23.6,15.8,30.35,North,0,2.0,2.5,72,0.00,,,0.01,WUHU216HW,2013-03-07 16:32:00,
2013-03-07 10:37:00,23.9,16.2,30.36,North,0,2.2,2.5,72,0.00,,,0.01,WUHU216HW,2013-03-07 16:37:00,
2013-03-07 10:42:00,24.1,16.0,30.36,North,0,1.8,2.5,71,0.00,,,0.01,WUHU216HW,2013-03-07 16:42:00,
2013-03-07 10:47:00,24.5,16.4,30.36,North,0,2.5,2.7,71,0.00,,,0.01,WUHU216HW,2013-03-07 16:47:00,
2013-03-07 10:52:00,25.0,17.2,30.36,North,0,1.3,2.7,72,0.00,,,0.01,WUHU216HW,2013-03-07 16:52:00,
2013-03-07 10:58:00,25.6,17.5,30.36,North,0,2.5,2.5,71,0.00,,,0.01,WUHU216HW,2013-03-07 16:58:00,
2013-03-07 11:03:00,25.4,16.9,30.36,North,0,1.8,3.4,70,0.00,,,0.01,WUHU216HW,2013-03-07 17:03:00,
2013-03-07 11:08:00,25.4,16.9,30.36,North,0,2.0,3.4,70,0.01,,,0.02,WUHU216HW,2013-03-07 17:08:00,
2013-03-07 11:13:00,25.6,17.5,30.36,North,0,2.5,3.4,71,0.01,,,0.02,WUHU216HW,2013-03-07 17:13:00,
2013-03-07 11:18:00,25.9,17.5,30.36,NNE,23,3.1,4.0,70,0.01,,,0.02,WUHU216HW,2013-03-07 17:18:00,
2013-03-07 11:23:00,26.6,17.8,30.36,NNE,23,2.5,4.0,69,0.01,,,0.02,WUHU216HW,2013-03-07 17:23:00,
2013-03-07 11:28:00,27.2,17.6,30.36,NNE,23,1.8,3.6,67,0.01,,,0.02,WUHU216HW,2013-03-07 17:28:00,
2013-03-07 11:33:00,27.4,17.5,30.36,North,0,0.9,3.6,66,0.01,,,0.02,WUHU216HW,2013-03-07 17:33:00,
2013-03-07 11:38:00,27.7,17.8,30.36,North,0,1.3,2.5,66,0.01,,,0.02,WUHU216HW,2013-03-07 17:38:00,
2013-03-07 11:43:00,27.9,17.6,30.35,North,0,1.3,1.8,65,0.01,,,0.02,WUHU216HW,2013-03-07 17:43:00,
2013-03-07 11:48:00,28.1,17.8,30.35,North,0,1.1,2.0,65,0.01,,,0.02,WUHU216HW,2013-03-07 17:48:00,
2013-03-07 11:53:00,28.4,17.8,30.35,North,0,1.1,2.2,64,0.01,,,0.02,WUHU216HW,2013-03-07 17:53:00,
2013-03-07 11:58:00,28.8,17.8,30.35,North,0,2.2,2.2,63,0.01,,,0.02,WUHU216HW,2013-03-07 17:58:00,
2013-03-07 12:03:00,28.8,18.6,30.35,North,0,1.8,2.5,65,0.01,,,0.02,WUHU216HW,2013-03-07 18:03:00,
2013-03-07 12:08:00,29.0,18.3,30.35,North,0,2.7,2.7,64,0.00,,,0.02,WUHU216HW,2013-03-07 18:08:00,
2013-03-07 12:13:00,29.2,18.8,30.35,NNW,338,2.5,2.7,65,0.00,,,0.02,WUHU216HW,2013-03-07 18:13:00,
2013-03-07 12:18:00,29.3,19.4,30.35,North,0,1.1,2.5,66,0.00,,,0.02,WUHU216HW,2013-03-07 18:18:00,
2013-03-07 12:23:00,29.9,19.8,30.35,NNW,338,1.6,2.5,66,0.00,,,0.02,WUHU216HW,2013-03-07 18:23:00,
2013-03-07 12:28:00,30.2,19.8,30.35,North,0,3.1,3.1,65,0.01,,,0.03,WUHU216HW,2013-03-07 18:28:00,
2013-03-07 12:33:00,30.6,19.4,30.35,North,0,3.1,3.1,63,0.01,,,0.03,WUHU216HW,2013-03-07 18:33:00,
2013-03-07 12:38:00,30.6,19.4,30.35,North,0,2.5,3.4,63,0.01,,,0.03,WUHU216HW,2013-03-07 18:38:00,
2013-03-07 12:43:00,31.0,19.4,30.34,NNE,23,2.2,3.4,62,0.01,,,0.03,WUHU216HW,2013-03-07 18:43:00,
2013-03-07 12:48:00,32.2,20.7,30.34,North,0,1.8,3.4,62,0.01,,,0.03,WUHU216HW,2013-03-07 18:48:00,
2013-03-07 12:53:00,32.6,20.3,30.34,NNE,23,2.5,2.9,60,0.01,,,0.03,WUHU216HW,2013-03-07 18:53:00,
2013-03-07 12:58:00,32.6,19.9,30.33,North,0,1.8,2.9,59,0.01,,,0.03,WUHU216HW,2013-03-07 18:58:00,
2013-03-07 13:03:00,32.6,19.5,30.33,North,0,2.5,4.3,58,0.01,,,0.03,WUHU216HW,2013-03-07 19:03:00,
2013-03-07 13:08:00,32.6,19.9,30.33,North,0,3.6,4.3,59,0.01,,,0.03,WUHU216HW,2013-03-07 19:08:00,
2013-03-07 13:13:00,32.4,19.7,30.33,North,0,3.4,3.6,59,0.01,,,0.03,WUHU216HW,2013-03-07 19:13:00,
2013-03-07 13:18:00,32.2,20.0,30.33,North,0,2.2,4.0,60,0.01,,,0.03,WUHU216HW,2013-03-07 19:18:00,
2013-03-07 13:23:00,32.4,20.5,30.34,North,0,3.4,4.0,61,0.00,,,0.03,WUHU216HW,2013-03-07 19:23:00,
2013-03-07 13:29:00,32.2,20.0,30.33,North,0,3.6,4.0,60,0.00,,,0.03,WUHU216HW,2013-03-07 19:29:00,
2013-03-07 13:34:00,32.4,20.2,30.34,North,0,3.4,4.0,60,0.00,,,0.03,WUHU216HW,2013-03-07 19:34:00,
2013-03-07 13:39:00,32.8,20.4,30.34,North,0,3.4,4.0,60,0.00,,,0.03,WUHU216HW,2013-03-07 19:39:00,
2013-03-07 13:44:00,32.9,19.7,30.34,North,0,2.2,4.0,58,0.00,,,0.03,WUHU216HW,2013-03-07 19:44:00,
2013-03-07 13:49:00,33.5,19.8,30.34,NNW,338,1.1,3.8,57,0.00,,,0.03,WUHU216HW,2013-03-07 19:49:00,
2013-03-07 13:54:00,34.4,20.7,30.34,North,0,0.9,3.4,57,0.00,,,0.03,WUHU216HW,2013-03-07 19:54:00,
2013-03-07 13:59:00,34.7,19.7,30.34,North,0,2.7,3.4,54,0.00,,,0.03,WUHU216HW,2013-03-07 19:59:00,
2013-03-07 14:04:00,34.9,19.4,30.34,North,0,2.0,3.4,53,0.00,,,0.03,WUHU216HW,2013-03-07 20:04:00,
2013-03-07 14:09:00,35.5,20.0,30.33,North,0,1.8,3.1,53,0.00,,,0.03,WUHU216HW,2013-03-07 20:09:00,
2013-03-07 14:14:00,36.4,21.2,30.33,NW,315,2.2,2.9,54,0.00,,,0.03,WUHU216HW,2013-03-07 20:14:00,
2013-03-07 14:19:00,37.1,21.1,30.33,North,0,1.1,2.5,52,0.00,,,0.03,WUHU216HW,2013-03-07 20:19:00,
2013-03-07 14:24:00,36.4,19.0,30.33,North,0,1.3,2.5,49,0.00,,,0.03,WUHU216HW,2013-03-07 20:24:00,
2013-03-07 14:29:00,35.6,19.4,30.33,North,0,1.1,3.1,51,0.00,,,0.03,WUHU216HW,2013-03-07 20:29:00,
2013-03-07 14:34:00,35.8,20.3,30.34,NNW,338,2.2,3.1,53,0.00,,,0.03,WUHU216HW,2013-03-07 20:34:00,
2013-03-07 14:39:00,36.2,19.4,30.34,North,0,0.9,2.2,50,0.00,,,0.03,WUHU216HW,2013-03-07 20:39:00,
2013-03-07 14:44:00,35.8,19.1,30.34,North,0,3.4,3.4,50,0.00,,,0.03,WUHU216HW,2013-03-07 20:44:00,
2013-03-07 14:49:00,35.8,19.5,30.34,North,0,1.1,3.4,51,0.00,,,0.03,WUHU216HW,2013-03-07 20:49:00,
2013-03-07 14:54:00,37.1,21.1,30.34,NNW,338,1.8,3.4,52,0.00,,,0.03,WUHU216HW,2013-03-07 20:54:00,
2013-03-07 14:59:00,40.0,21.3,30.33,North,0,1.1,2.5,47,0.00,,,0.03,WUHU216HW,2013-03-07 20:59:00,
2013-03-07 15:04:00,40.0,20.7,30.33,North,0,1.8,2.2,46,0.00,,,0.03,WUHU216HW,2013-03-07 21:04:00,
2013-03-07 15:09:00,40.5,21.2,30.33,North,0,0.9,2.5,46,0.00,,,0.03,WUHU216HW,2013-03-07 21:09:00,
2013-03-07 15:14:00,41.0,20.6,30.32,NE,45,0.9,2.7,44,0.00,,,0.03,WUHU216HW,2013-03-07 21:14:00,
2013-03-07 15:19:00,41.0,20.1,30.32,North,0,2.2,3.6,43,0.00,,,0.03,WUHU216HW,2013-03-07 21:19:00,
2013-03-07 15:24:00,40.0,19.6,30.32,NNE,23,3.1,3.8,44,0.00,,,0.03,WUHU216HW,2013-03-07 21:24:00,
2013-03-07 15:29:00,38.7,18.6,30.32,East,90,2.0,4.0,44,0.00,,,0.03,WUHU216HW,2013-03-07 21:29:00,
2013-03-07 15:34:00,38.3,18.7,30.32,ESE,113,2.2,4.0,45,0.00,,,0.03,WUHU216HW,2013-03-07 21:34:00,
2013-03-07 15:39:00,38.2,18.5,30.32,ESE,113,1.6,3.1,45,0.00,,,0.03,WUHU216HW,2013-03-07 21:39:00,
2013-03-07 15:44:00,38.2,18.5,30.32,ENE,68,1.6,3.4,45,0.00,,,0.03,WUHU216HW,2013-03-07 21:44:00,
2013-03-07 15:49:00,38.3,18.7,30.33,ENE,68,2.5,3.6,45,0.00,,,0.03,WUHU216HW,2013-03-07 21:49:00,
2013-03-07 15:54:00,39.2,19.5,30.32,ESE,113,2.5,3.6,45,0.00,,,0.03,WUHU216HW,2013-03-07 21:54:00,
2013-03-07 15:59:00,40.1,19.8,30.32,East,90,2.0,3.4,44,0.00,,,0.03,WUHU216HW,2013-03-07 21:59:00,
2013-03-07 16:04:00,39.2,19.0,30.32,East,90,1.6,3.4,44,0.00,,,0.03,WUHU216HW,2013-03-07 22:04:00,
2013-03-07 16:09:00,39.2,19.5,30.32,NE,45,2.7,2.9,45,0.00,,,0.03,WUHU216HW,2013-03-07 22:09:00,
2013-03-07 16:14:00,39.4,19.7,30.32,NE,45,1.3,3.4,45,0.00,,,0.03,WUHU216HW,2013-03-07 22:14:00,
2013-03-07 16:19:00,39.1,19.4,30.32,ENE,68,3.4,3.4,45,0.00,,,0.03,WUHU216HW,2013-03-07 22:19:00,
2013-03-07 16:24:00,38.5,18.9,30.32,ESE,113,2.5,3.4,45,0.00,,,0.03,WUHU216HW,2013-03-07 22:24:00,
2013-03-07 16:29:00,36.7,18.3,30.33,ESE,113,1.8,3.4,47,0.00,,,0.03,WUHU216HW,2013-03-07 22:29:00,
2013-03-07 16:34:00,35.3,18.0,30.33,East,90,2.2,2.9,49,0.00,,,0.03,WUHU216HW,2013-03-07 22:34:00,
2013-03-07 16:39:00,34.4,17.6,30.33,NE,45,2.0,3.1,50,0.00,,,0.03,WUHU216HW,2013-03-07 22:39:00,
2013-03-07 16:44:00,34.2,18.4,30.33,NE,45,3.4,3.4,52,0.00,,,0.03,WUHU216HW,2013-03-07 22:44:00,
2013-03-07 16:49:00,34.0,18.2,30.33,East,90,1.8,4.0,52,0.00,,,0.03,WUHU216HW,2013-03-07 22:49:00,
2013-03-07 16:54:00,33.7,18.3,30.32,ESE,113,3.6,4.9,53,0.00,,,0.03,WUHU216HW,2013-03-07 22:54:00,
2013-03-07 16:59:00,33.5,18.6,30.33,ESE,113,0.7,4.9,54,0.00,,,0.03,WUHU216HW,2013-03-07 22:59:00,
2013-03-07 17:04:00,33.1,18.6,30.33,East,90,2.9,4.0,55,0.00,,,0.03,WUHU216HW,2013-03-07 23:04:00,
2013-03-07 17:09:00,32.8,18.7,30.33,ESE,113,3.1,4.0,56,0.00,,,0.03,WUHU216HW,2013-03-07 23:09:00,
2013-03-07 17:14:00,32.4,18.4,30.33,ENE,68,2.7,4.3,56,0.00,,,0.03,WUHU216HW,2013-03-07 23:14:00,
2013-03-07 17:19:00,32.0,18.1,30.33,ENE,68,2.5,4.3,56,0.00,,,0.03,WUHU216HW,2013-03-07 23:19:00,
2013-03-07 17:24:00,31.5,18.0,30.33,SE,135,3.8,4.3,57,0.00,,,0.03,WUHU216HW,2013-03-07 23:24:00,
2013-03-07 17:29:00,31.1,18.1,30.33,ESE,113,3.8,5.4,58,0.00,,,0.03,WUHU216HW,2013-03-07 23:29:00,
2013-03-07 17:34:00,30.6,17.9,30.34,ESE,113,3.4,5.4,59,0.00,,,0.03,WUHU216HW,2013-03-07 23:34:00,
2013-03-07 17:39:00,30.1,17.5,30.34,ESE,113,4.0,4.9,59,0.00,,,0.03,WUHU216HW,2013-03-07 23:39:00,
2013-03-07 17:44:00,29.9,17.6,30.34,ESE,113,4.5,4.9,60,0.00,,,0.03,WUHU216HW,2013-03-07 23:44:00,
2013-03-07 17:49:00,29.3,17.6,30.34,SE,135,2.9,4.9,61,0.00,,,0.03,WUHU216HW,2013-03-07 23:49:00,
2013-03-07 17:54:00,29.0,17.6,30.34,ESE,113,3.6,4.9,62,0.00,,,0.03,WUHU216HW,2013-03-07 23:54:00,
2013-03-07 17:59:00,28.4,17.1,30.34,ESE,113,3.8,4.7,62,0.00,,,0.03,WUHU216HW,2013-03-07 23:59:00,
2013-03-07 18:04:00,28.1,16.7,30.34,ESE,113,2.7,4.7,62,0.00,,,0.03,WUHU216HW,2013-03-08 00:04:00,
2013-03-07 18:09:00,27.7,16.4,30.34,ESE,113,3.4,4.0,62,0.00,,,0.03,WUHU216HW,2013-03-08 00:09:00,
2013-03-07 18:14:00,27.5,16.2,30.34,East,90,1.8,4.0,62,0.00,,,0.03,WUHU216HW,2013-03-08 00:14:00,
2013-03-07 18:20:00,27.2,16.2,30.34,ESE,113,2.7,3.4,63,0.00,,,0.03,WUHU216HW,2013-03-08 00:20:00,
2013-03-07 18:25:00,27.0,16.4,30.34,ESE,113,1.8,2.9,64,0.00,,,0.03,WUHU216HW,2013-03-08 00:25:00,
2013-03-07 18:30:00,26.6,16.7,30.34,ESE,113,2.2,3.8,66,0.00,,,0.03,WUHU216HW,2013-03-08 00:30:00,
2013-03-07 18:35:00,26.5,16.6,30.34,ESE,113,2.9,3.8,66,0.00,,,0.03,WUHU216HW,2013-03-08 00:35:00,
2013-03-07 18:40:00,26.1,16.2,30.34,ESE,113,2.2,3.4,66,0.00,,,0.03,WUHU216HW,2013-03-08 00:40:00,
2013-03-07 18:45:00,25.9,16.7,30.34,ESE,113,2.9,2.9,68,0.00,,,0.03,WUHU216HW,2013-03-08 00:45:00,
2013-03-07 18:50:00,25.7,16.6,30.35,ESE,113,2.0,3.4,68,0.00,,,0.03,WUHU216HW,2013-03-08 00:50:00,
2013-03-07 18:55:00,25.6,16.4,30.35,ESE,113,1.8,3.4,68,0.00,,,0.03,WUHU216HW,2013-03-08 00:55:00,
2013-03-07 19:00:00,25.6,16.7,30.35,SSE,158,1.3,2.5,69,0.00,,,0.03,WUHU216HW,2013-03-08 01:00:00,
2013-03-07 19:05:00,25.4,16.6,30.35,SSE,158,0.0,2.5,69,0.00,,,0.03,WUHU216HW,2013-03-08 01:05:00,
2013-03-07 19:10:00,24.8,15.7,30.35,ESE,113,1.1,1.8,68,0.00,,,0.03,WUHU216HW,2013-03-08 01:10:00,
2013-03-07 19:15:00,24.7,15.8,30.35,ESE,113,2.2,2.2,69,0.00,,,0.03,WUHU216HW,2013-03-08 01:15:00,
2013-03-07 19:20:00,24.3,15.2,30.35,SE,135,1.3,2.2,68,0.00,,,0.03,WUHU216HW,2013-03-08 01:20:00,
2013-03-07 19:25:00,24.3,15.6,30.35,ESE,113,2.5,3.4,69,0.00,,,0.03,WUHU216HW,2013-03-08 01:25:00,
2013-03-07 19:30:00,24.3,15.9,30.35,SE,135,1.6,3.4,70,0.00,,,0.03,WUHU216HW,2013-03-08 01:30:00,
2013-03-07 19:35:00,24.3,15.9,30.35,SSW,203,0.7,2.5,70,0.00,,,0.03,WUHU216HW,2013-03-08 01:35:00,
2013-03-07 19:40:00,24.1,15.8,30.35,SSW,203,0.9,1.8,70,0.00,,,0.03,WUHU216HW,2013-03-08 01:40:00,
2013-03-07 19:45:00,23.8,15.4,30.36,SSW,203,0.0,1.1,70,0.00,,,0.03,WUHU216HW,2013-03-08 01:45:00,
2013-03-07 19:50:00,23.0,14.4,30.36,SSW,203,0.0,0.7,69,0.00,,,0.03,WUHU216HW,2013-03-08 01:50:00,
2013-03-07 19:55:00,22.5,13.9,30.36,SSW,203,0.0,0.0,69,0.00,,,0.03,WUHU216HW,2013-03-08 01:55:00,
2013-03-07 20:00:00,21.2,12.6,30.36,North,0,0.0,2.0,69,0.00,,,0.03,WUHU216HW,2013-03-08 02:00:00,
2013-03-07 20:06:00,20.2,11.5,30.36,North,0,0.0,2.0,69,0.00,,,0.03,WUHU216HW,2013-03-08 02:06:00,
2013-03-07 20:11:00,19.4,11.8,30.36,North,0,0.0,0.0,72,0.00,,,0.03,WUHU216HW,2013-03-08 02:11:00,
2013-03-07 20:16:00,19.3,12.5,30.36,North,0,0.0,0.0,75,0.00,,,0.03,WUHU216HW,2013-03-08 02:16:00,
2013-03-07 20:21:00,19.1,12.3,30.36,North,0,0.0,0.0,75,0.00,,,0.03,WUHU216HW,2013-03-08 02:21:00,
2013-03-07 20:26:00,18.7,12.0,30.36,North,0,0.0,0.0,75,0.00,,,0.03,WUHU216HW,2013-03-08 02:26:00,
2013-03-07 20:31:00,18.5,12.2,30.36,North,0,0.0,0.0,76,0.00,,,0.03,WUHU216HW,2013-03-08 02:31:00,
2013-03-07 20:36:00,18.2,11.8,30.36,North,0,0.0,0.0,76,0.00,,,0.03,WUHU216HW,2013-03-08 02:36:00,
2013-03-07 20:41:00,17.6,11.9,30.36,North,0,0.4,0.4,78,0.00,,,0.03,WUHU216HW,2013-03-08 02:41:00,
2013-03-07 20:46:00,16.9,11.2,30.36,North,0,0.0,0.7,78,0.00,,,0.03,WUHU216HW,2013-03-08 02:46:00,
2013-03-07 20:51:00,16.7,11.6,30.36,NW,315,0.7,1.1,80,0.00,,,0.03,WUHU216HW,2013-03-08 02:51:00,
2013-03-07 20:56:00,16.7,11.4,30.36,NW,315,0.0,1.1,79,0.00,,,0.03,WUHU216HW,2013-03-08 02:56:00,
2013-03-07 21:01:00,16.6,10.9,30.36,NW,315,0.0,1.1,78,0.00,,,0.03,WUHU216HW,2013-03-08 03:01:00,
2013-03-07 21:06:00,16.4,10.4,30.36,NW,315,0.0,0.0,77,0.00,,,0.03,WUHU216HW,2013-03-08 03:06:00,
2013-03-07 21:11:00,16.2,9.9,30.36,NW,315,0.0,0.0,76,0.00,,,0.03,WUHU216HW,2013-03-08 03:11:00,
2013-03-07 21:16:00,16.2,10.3,30.36,NW,315,0.0,0.0,77,0.00,,,0.03,WUHU216HW,2013-03-08 03:16:00,
2013-03-07 21:21:00,16.2,9.9,30.36,NW,315,0.0,0.0,76,0.00,,,0.03,WUHU216HW,2013-03-08 03:21:00,
2013-03-07 21:26:00,15.5,9.3,30.36,NW,315,0.0,0.0,76,0.00,,,0.03,WUHU216HW,2013-03-08 03:26:00,
2013-03-07 21:31:00,15.1,8.9,30.36,NW,315,0.0,0.0,76,0.00,,,0.03,WUHU216HW,2013-03-08 03:31:00,
2013-03-07 21:36:00,14.8,8.8,30.36,NW,315,0.0,0.0,77,0.00,,,0.03,WUHU216HW,2013-03-08 03:36:00,
2013-03-07 21:41:00,14.6,8.6,30.36,NW,315,0.0,0.0,77,0.00,,,0.03,WUHU216HW,2013-03-08 03:41:00,
2013-03-07 21:46:00,14.4,8.2,30.36,NW,315,0.0,0.0,76,0.00,,,0.03,WUHU216HW,2013-03-08 03:46:00,
2013-03-07 21:51:00,14.2,8.0,30.36,NW,315,0.0,0.0,76,0.00,,,0.03,WUHU216HW,2013-03-08 03:51:00,
2013-03-07 21:56:00,14.2,8.3,30.36,NW,315,0.0,0.0,77,0.00,,,0.03,WUHU216HW,2013-03-08 03:56:00,
2013-03-07 22:01:00,14.6,9.3,30.36,NW,315,0.0,0.0,79,0.00,,,0.03,WUHU216HW,2013-03-08 04:01:00,
2013-03-07 22:06:00,14.8,10.5,30.36,NW,315,0.7,1.1,83,0.00,,,0.03,WUHU216HW,2013-03-08 04:06:00,
2013-03-07 22:11:00,14.8,10.0,30.36,NW,315,0.0,1.1,81,0.00,,,0.03,WUHU216HW,2013-03-08 04:11:00,
2013-03-07 22:16:00,14.6,9.5,30.36,NW,315,0.0,0.7,80,0.00,,,0.03,WUHU216HW,2013-03-08 04:16:00,
2013-03-07 22:21:00,14.4,9.4,30.36,NW,315,0.0,0.0,80,0.00,,,0.03,WUHU216HW,2013-03-08 04:21:00,
2013-03-07 22:26:00,13.7,8.9,30.36,NW,315,0.0,0.0,81,0.00,,,0.03,WUHU216HW,2013-03-08 04:26:00,
2013-03-07 22:31:00,13.5,9.0,30.36,NW,315,0.0,0.0,82,0.00,,,0.03,WUHU216HW,2013-03-08 04:31:00,
2013-03-07 22:36:00,14.8,10.8,30.36,NW,315,0.0,0.0,84,0.00,,,0.03,WUHU216HW,2013-03-08 04:36:00,
2013-03-07 22:41:00,15.3,11.3,30.36,NW,315,0.0,0.0,84,0.00,,,0.03,WUHU216HW,2013-03-08 04:41:00,
2013-03-07 22:46:00,15.5,11.3,30.36,West,270,0.0,0.0,83,0.00,,,0.03,WUHU216HW,2013-03-08 04:46:00,
2013-03-07 22:51:00,15.5,11.3,30.36,West,270,0.0,0.0,83,0.00,,,0.03,WUHU216HW,2013-03-08 04:51:00,
2013-03-07 22:56:00,15.8,11.5,30.35,SE,135,1.1,1.8,83,0.00,,,0.03,WUHU216HW,2013-03-08 04:56:00,
2013-03-07 23:00:00,16.2,12.2,30.35,ESE,113,1.8,2.7,84,0.00,,,0.03,WUHU216HW,2013-03-08 05:00:00,
2013-03-07 23:02:00,16.6,12.5,30.35,ESE,113,2.5,3.4,84,0.00,,,0.03,WUHU216HW,2013-03-08 05:02:00,
2013-03-07 23:07:00,17.3,13.4,30.35,ESE,113,1.8,3.4,85,0.00,,,0.03,WUHU216HW,2013-03-08 05:07:00,
2013-03-07 23:12:00,17.8,14.0,30.35,SE,135,2.9,4.3,85,0.00,,,0.03,WUHU216HW,2013-03-08 05:12:00,
2013-03-07 23:17:00,18.2,14.3,30.35,SE,135,1.1,4.3,85,0.00,,,0.03,WUHU216HW,2013-03-08 05:17:00,
2013-03-07 23:22:00,18.5,14.4,30.35,SSW,203,0.2,3.1,84,0.00,,,0.03,WUHU216HW,2013-03-08 05:22:00,
2013-03-07 23:27:00,18.4,14.0,30.35,SSE,158,0.0,2.5,83,0.00,,,0.03,WUHU216HW,2013-03-08 05:27:00,
2013-03-07 23:32:00,17.6,12.7,30.35,SSE,158,0.0,1.1,81,0.00,,,0.03,WUHU216HW,2013-03-08 05:32:00,
2013-03-07 23:37:00,17.3,12.3,30.35,SSE,158,0.0,0.0,81,0.00,,,0.03,WUHU216HW,2013-03-08 05:37:00,
2013-03-07 23:42:00,16.9,12.1,30.36,SSE,158,0.0,0.0,81,0.00,,,0.03,WUHU216HW,2013-03-08 05:42:00,
2013-03-07 23:47:00,16.7,11.9,30.36,SSE,158,0.0,0.0,81,0.00,,,0.03,WUHU216HW,2013-03-08 05:47:00,
2013-03-07 23:52:00,16.4,11.5,30.36,SSE,158,0.0,0.0,81,0.00,,,0.03,WUHU216HW,2013-03-08 05:52:00,
2013-03-07 23:57:00,16.0,11.3,30.37,SSE,158,0.0,0.0,81,0.00,,,0.03,WUHU216HW,2013-03-08 05:57:00,